Weather History for Burbank, CA

Change the Weather History Date:

Thursday, January 30, 2014

  Actual Average Record
Temperature  
Mean Temperature 60 °F 55 °F  
Max Temperature 63 °F 68 °F 85 °F (2003)
Min Temperature 57 °F 43 °F 29 °F (1969)
Degree Days  
Heating Degree Days 5 10  
Month to date heating degree days 62 306  
Since 1 July heating degree days 360 873  
Cooling Degree Days 0 0  
Month to date cooling degree days 37 0  
Year to date cooling degree days 37 0  
Growing Degree Days 10 (Base 50)    
Moisture  
Dew Point 50 °F    
Average Humidity 71    
Maximum Humidity 86    
Minimum Humidity 56    
Precipitation  
Precipitation T in 0.13 in 2.85 in (1986)
Month to date precipitation T 3.40  
Year to date precipitation T 3.40  
Since 1 July precipitation 0.43 8.16  
Sea Level Pressure  
Sea Level Pressure 29.89 in    
Wind  
Wind Speed 5 mph (SSE)    
Max Wind Speed 10 mph    
Max Gust Speed 15 mph    
Visibility 5 miles    
Events Rain    
T = Trace of Precipitation, MM = Missing Value Source: NWS Daily Summary

Daily Weather History Graph

Daily Weather History Graph

Search for Another Location

Airport:

Trip Planner

Search our weather history database for the weather conditions in past years. The results will help you decide how hot, cold, wet, or windy it might be!

Date:

Astronomy

Jan. 30, 2014 Rise Set
Actual Time 6:52 AM PST 5:21 PM PST
Civil Twilight 6:25 AM PST 5:48 PM PST
Nautical Twilight 5:55 AM PST 6:18 PM PST
Astronomical Twilight 5:26 AM PST 6:47 PM PST
Moon 6:23 AM PST (1/30) 5:36 PM PST (1/30)
Length of Visible Light 11h 22m
Length of Day
10h 29m
Waning Crescent, 0% of the Moon is Illuminated
Jan 30
Waning Crescent
Jan 30
New
Feb 6
First Quarter
Feb 14
Full
Feb 22
Last Quarter

Hourly Weather History & Observations

Time (PST) Temp. Dew Point Humidity Pressure Visibility Wind Dir Wind Speed Gust Speed Precip Events Conditions
12:04 AM 57.2 °F 53.6 °F 88% 29.95 in 3.0 mi SE 4.6 mph - N/A   Haze
12:13 AM 57.2 °F 53.6 °F 88% 29.95 in 2.5 mi SE 8.1 mph - N/A   Haze
12:53 AM 57.9 °F 53.1 °F 84% 29.92 in 2.5 mi SSE 6.9 mph - N/A   Haze
1:21 AM 57.2 °F 51.8 °F 82% 29.95 in 3.0 mi SSE 5.8 mph - N/A   Haze
1:53 AM 57.9 °F 52.0 °F 81% 29.91 in 2.5 mi SSE 3.5 mph - N/A   Haze
2:53 AM 57.9 °F 52.0 °F 81% 29.90 in 2.5 mi ESE 4.6 mph - N/A   Haze
3:53 AM 57.9 °F 52.0 °F 81% 29.89 in 2.5 mi SSE 5.8 mph - N/A   Haze
4:53 AM 57.9 °F 50.0 °F 75% 29.89 in 4.0 mi SSE 5.8 mph - N/A   Haze
5:15 AM 57.2 °F 50.0 °F 77% 29.93 in 5.0 mi SSE 4.6 mph - N/A   Haze
5:53 AM 57.9 °F 50.0 °F 75% 29.90 in 4.0 mi South 4.6 mph - N/A   Haze
6:53 AM 57.0 °F 48.9 °F 74% 29.89 in 4.0 mi SSE 3.5 mph - N/A   Haze
7:00 AM 57.2 °F 48.2 °F 72% 29.92 in 3.0 mi SSE 4.6 mph - N/A   Haze
7:53 AM 57.9 °F 48.0 °F 70% 29.91 in 3.0 mi SE 6.9 mph - N/A   Haze
8:53 AM 59.0 °F 48.0 °F 67% 29.93 in 4.0 mi Calm Calm - N/A   Haze
9:53 AM 60.1 °F 48.0 °F 64% 29.94 in 4.0 mi Calm Calm - N/A   Haze
10:53 AM 62.1 °F 46.9 °F 58% 29.92 in 6.0 mi Variable 5.8 mph - N/A   Haze
11:48 AM 62.6 °F 46.4 °F 55% 29.93 in 8.0 mi SSW 3.5 mph - N/A   Overcast
11:53 AM 62.1 °F 46.9 °F 58% 29.90 in 6.0 mi Calm Calm - N/A   Haze
12:00 PM 62.6 °F 46.4 °F 55% 29.93 in 7.0 mi SSE 5.8 mph - N/A   Haze
12:53 PM 63.0 °F 46.9 °F 56% 29.87 in 7.0 mi SE 8.1 mph - N/A   Haze
1:53 PM 63.0 °F 48.0 °F 58% 29.85 in 6.0 mi SSE 8.1 mph - N/A   Haze
2:11 PM 62.6 °F 48.2 °F 59% 29.87 in 6.0 mi South 9.2 mph - N/A   Haze
2:53 PM 61.0 °F 51.1 °F 70% 29.85 in 5.0 mi South 6.9 mph - N/A   Haze
3:53 PM 61.0 °F 51.1 °F 70% 29.85 in 6.0 mi South 6.9 mph - N/A   Haze
4:11 PM 60.8 °F 51.8 °F 72% 29.87 in 4.0 mi SSE 10.4 mph - 0.00 in Rain Light Rain
4:53 PM 59.0 °F 53.1 °F 81% 29.85 in 3.0 mi SSE 6.9 mph - 0.00 in   Haze
5:53 PM 59.0 °F 53.1 °F 81% 29.85 in 4.0 mi SE 6.9 mph - N/A   Haze
6:53 PM 60.1 °F 52.0 °F 75% 29.85 in 4.0 mi SSE 9.2 mph - N/A   Haze
7:20 PM 59.0 °F 53.6 °F 82% 29.88 in 5.0 mi SSE 6.9 mph - 0.00 in Rain Light Rain
7:53 PM 59.0 °F 53.1 °F 81% 29.86 in 5.0 mi South 4.6 mph - 0.00 in   Overcast
8:23 PM 59.0 °F 53.6 °F 82% 29.88 in 5.0 mi South 4.6 mph - N/A   Haze
8:53 PM 57.9 °F 52.0 °F 81% 29.86 in 5.0 mi South 4.6 mph - N/A   Haze
8:55 PM 57.2 °F 51.8 °F 82% 29.88 in 10.0 mi South 4.6 mph - N/A   Overcast
9:53 PM 57.9 °F 51.1 °F 78% 29.87 in 8.0 mi Calm Calm - N/A   Overcast
10:53 PM 57.9 °F 51.1 °F 78% 29.87 in 10.0 mi SE 3.5 mph - N/A   Mostly Cloudy
11:53 PM 57.9 °F 50.0 °F 75% 29.87 in 10.0 mi South 3.5 mph - N/A   Overcast